Location: *
(1.3500°S, 147.5000°W)
Time: 16:31:23
(UTC+00:00)

Cosmos 2297 - Pass Details

Date: 07 April 2020
Orbit: 834 x 860 km, 71.0° (Epoch: 24 May)

Event Time Altitude Azimuth Distance (km) Brightness Sun altitude
Rises 05:29:36 0° 335° (NNW) 3,408 7.3 -24.4°
Reaches altitude 10° 05:32:05 10° 331° (NNW) 2,478 6.6 -25.0°
Maximum altitude 05:37:37 53° 255° (WSW) 1,045 4.4 -26.3°
Enters shadow 05:42:38 13° 180° (S) 2,290 5.9 -27.6°
